Home > Weather > Haarlem > Past weeks

Flag for Netherlands Weather for the Past 2 Weeks in Haarlem, Netherlands

Now
34 °F

Fog.


Feels Like: 29 °F
Forecast: 35 / 41 °F
Wind: 6 mph from Southeast

Location: Amsterdam Schiphol Airport

Current Time: Feb 12, 2016 at 4:49:11 AM

Latest Report: Feb 12, 2016 at 3:55 AM


Visibility: 0 mi

Pressure: 29.59 "Hg

Humidity: 93%

Dew point: 32 °F

Location of HaarlemLocation

Historic Weather in Haarlem — Graph

°F

Haarlem Temperature Yesterday

Maximum temperature yesterday: 46 °F (at 2:25 PM)
Minimum temperature yesterday: 34 °F (at 8:55 PM)
Average temperature yesterday: 40 °F

High & Low Weather Summary for the Past Weeks

 TemperatureHumidityPressure
High54 °F (Feb 1, 8:25 AM)100% (Jan 31, 4:55 PM)30.27 "Hg (Jan 31, 4:55 PM)
Low32 °F (Feb 12, 12:25 AM)57% (Jan 30, 8:55 PM)28.94 "Hg (Feb 9, 3:25 PM)
Average45 °F80%29.72 "Hg
* Reported Jan 28 3:25 AM — Feb 12 3:25 AM, Haarlem, Weather by CustomWeather, © 2016

Note: Actual official high and low records may vary slightly from our data, if they occured in-between our weather recording intervals... More about our weather records

Advertising

Haarlem Weather History for the Previous 24 Hours

 ConditionsComfort  
Time TempWeatherWind HumidityBarometerVisibility
3:25 AM
Fri, Feb 12
32 °FIce fog.7 mph100%29.59 "Hg1 mi
2:55 AM32 °FIce fog.3 mph100%29.59 "Hg1 mi
2:25 AM32 °FIce fog.5 mph100%29.59 "Hg2 mi
1:55 AM32 °FIce fog.6 mph100%29.62 "Hg3 mi
1:25 AM32 °FFog.5 mph93%29.62 "Hg4 mi
12:55 AM34 °FFog.6 mph93%29.62 "Hg4 mi
12:25 AM32 °FClear.6 mph93%29.62 "Hg10 mi
11:55 PM
Thu, Feb 11
34 °FClear.7 mph93%29.62 "Hg10 mi
10:25 PM34 °FPassing clouds.7 mph93%29.65 "HgN/A
9:55 PM34 °FPassing clouds.7 mph93%29.65 "HgN/A
9:25 PM34 °FClear.8 mph93%29.65 "Hg10 mi
8:55 PM34 °FClear.8 mph93%29.65 "Hg10 mi
8:25 PM36 °FClear.6 mph87%29.65 "Hg10 mi
7:55 PM36 °FPassing clouds.6 mph87%29.65 "HgN/A
7:25 PM36 °FPassing clouds.7 mph87%29.65 "HgN/A
6:55 PM39 °FPassing clouds.9 mph81%29.65 "HgN/A
6:25 PM41 °FPassing clouds.9 mph76%29.65 "HgN/A
5:55 PM41 °FPassing clouds.9 mph81%29.62 "HgN/A
5:25 PM41 °FPassing clouds.8 mph81%29.62 "HgN/A
4:55 PM43 °FPassing clouds.13 mph76%29.62 "HgN/A
4:25 PM43 °FPassing clouds.12 mph71%29.62 "HgN/A
3:55 PM45 °FPassing clouds.13 mph66%29.62 "HgN/A
3:25 PM45 °FPassing clouds.12 mph66%29.62 "HgN/A
2:55 PM45 °FPassing clouds.15 mph71%29.62 "HgN/A
2:25 PM46 °FPassing clouds.16 mph66%29.62 "HgN/A
1:55 PM45 °FScattered clouds.16 mph71%29.62 "HgN/A
1:25 PM45 °FScattered clouds.14 mph71%29.62 "HgN/A
12:55 PM43 °FScattered clouds.14 mph71%29.62 "HgN/A
12:25 PM43 °FScattered clouds.12 mph71%29.62 "HgN/A
11:55 AM45 °FScattered clouds.16 mph71%29.62 "HgN/A
11:25 AM45 °FScattered clouds.16 mph71%29.62 "HgN/A
10:55 AM45 °FPassing clouds.15 mph71%29.62 "HgN/A
10:25 AM45 °FPassing clouds.13 mph76%29.62 "HgN/A
9:55 AM43 °FPassing clouds.10 mph81%29.59 "HgN/A
9:25 AM41 °FPassing clouds.9 mph81%29.59 "HgN/A
8:55 AM39 °FPassing clouds.10 mph87%29.59 "HgN/A
8:25 AM39 °FPassing clouds.10 mph81%29.59 "HgN/A
7:55 AM39 °FPassing clouds.10 mph81%29.59 "HgN/A
7:25 AM39 °FPassing clouds.10 mph81%29.59 "HgN/A
6:55 AM36 °FPassing clouds.8 mph87%29.59 "HgN/A
6:25 AM37 °FPassing clouds.9 mph81%29.59 "HgN/A
5:55 AM37 °FPassing clouds.9 mph81%29.56 "HgN/A
5:25 AM37 °FPassing clouds.9 mph81%29.56 "HgN/A
4:55 AM37 °FPassing clouds.9 mph81%29.56 "HgN/A
4:25 AM39 °FPassing clouds.8 mph75%29.56 "HgN/A
Weather by CustomWeather, © 2016

See weather overviewHow to use our weather pages